Latest Weather Observations for Leinster

IDW60801

Issued at 12:05 pm WST Thursday 23 October 2014 (issued every 30 minutes, with the page automatically refreshed every 10 minutes)

About weather observations | Map of weather stations | Latest weather observations for WA | Other Formats
Station Details ID: 012314 Name: LEINSTER AERO Lat: -27.84 Lon: 120.70 Height: 497.0 m
Data from the previous 72 hours. | See also: Recent months at Leinster
Date/Time
WST
Temp
°C
App
Temp
°C
Dew
Point
Rel
Hum
%
Delta-T
°C
Wind Press
QNH
hPa
Press
MSL
hPa
Rain
since 9 am
mm
Dir
 
Spd
km/h
Gust
km/h
Spd
kts
Gust
kts
23/12:00pm 26.8 25.1 8.3 31 10.2 WNW 7 17 4 9 1014.9 1012.6 0.0
23/11:30am 26.8 25.3 8.3 31 10.2 E 6 17 3 9 1015.5 1013.2 0.0
23/11:00am 25.3 23.0 7.4 32 9.7 SSW 9 19 5 10 1015.9 1013.6 0.0
23/10:30am 24.8 21.7 7.4 33 9.4 W 13 19 7 10 1016.4 1014.1 0.0
23/10:00am 23.3 20.2 7.4 36 8.5 SW 13 20 7 11 1016.9 1014.6 0.0
23/09:30am 22.6 18.7 7.2 37 8.2 SSW 17 22 9 12 1017.3 1015.0 0.0
23/09:00am 22.8 18.9 7.0 36 8.3 SW 17 26 9 14 1017.5 1015.2 0.0
23/08:30am 21.7 17.7 6.8 38 7.8 SSW 17 22 9 12 1017.4 1015.1 0.0
23/08:00am 21.5 17.0 7.0 39 7.6 SSW 20 28 11 15 1017.2 1014.9 0.0
23/07:30am 20.9 16.6 6.8 40 7.3 SSW 19 26 10 14 1017.2 1014.9 0.0
23/07:00am 20.6 16.8 7.6 43 6.9 S 17 24 9 13 1017.0 1014.7 0.0
23/06:30am 20.3 16.8 8.9 48 6.2 S 17 22 9 12 1016.7 1014.4 0.0
23/06:00am 19.8 17.3 9.7 52 5.5 SSE 13 17 7 9 1016.4 1014.1 0.0
23/05:30am 19.5 16.6 9.7 53 5.3 S 15 20 8 11 1015.8 1013.5 0.0
23/05:00am 19.8 16.5 9.7 52 5.5 SSW 17 24 9 13 1015.5 1013.2 0.0
23/04:30am 20.4 17.0 9.0 48 6.2 SSW 17 28 9 15 1015.2 1012.9 0.0
23/04:00am 21.0 16.9 8.0 43 6.9 SW 19 28 10 15 1015.1 1012.8 0.0
23/03:30am 22.0 17.5 7.0 38 7.9 WSW 20 26 11 14 1014.6 1012.3 0.0
23/03:00am 22.8 19.9 6.6 35 8.5 W 11 17 6 9 1014.1 1011.7 0.0
23/02:30am 23.5 19.4 6.3 33 9.0 W 17 26 9 14 1013.7 1011.4 0.0
23/02:00am 23.5 19.0 6.3 33 9.0 W 19 22 10 12 1013.5 1011.2 0.0
23/01:30am 23.2 19.6 6.9 35 8.6 WNW 15 19 8 10 1013.8 1011.5 0.0
23/01:00am 23.8 20.5 6.6 33 9.1 NW 13 19 7 10 1014.4 1012.1 0.0
23/12:30am 24.4 21.1 6.6 32 9.4 WNW 13 15 7 8 1014.3 1011.9 0.0
23/12:00am 24.6 20.9 6.4 31 9.6 WNW 15 20 8 11 1014.8 1012.5 0.0
 
Date/Time
WST
Temp
°C
App
Temp
°C
Dew
Point
Rel
Hum
%
Delta-T
°C
Wind Press
QNH
hPa
Press
MSL
hPa
Rain
since 9 am
mm
Dir
 
Spd
km/h
Gust
km/h
Spd
kts
Gust
kts
22/11:30pm 24.5 21.6 6.7 32 9.5 NW 11 13 6 7 1014.8 1012.5 0.0
22/11:00pm 25.5 22.1 5.7 28 10.4 WNW 13 17 7 9 1015.0 1012.7 0.0
22/10:30pm 26.0 22.5 5.6 27 10.7 NW 13 17 7 9 1015.5 1013.2 0.0
22/10:00pm 26.7 22.7 5.1 25 11.3 NW 15 20 8 11 1015.5 1013.2 0.0
22/09:30pm 27.4 23.3 4.5 23 11.9 NW 15 20 8 11 1015.5 1013.2 0.0
22/09:00pm 27.3 24.0 4.4 23 11.9 NW 11 15 6 8 1015.5 1013.2 0.0
22/08:30pm 27.9 23.8 4.2 22 12.3 NW 15 19 8 10 1015.7 1013.4 0.0
22/08:00pm 28.0 23.9 4.3 22 12.3 NW 15 19 8 10 1015.6 1013.3 0.0
22/07:30pm 28.0 24.3 4.3 22 12.3 NW 13 17 7 9 1015.5 1013.2 0.0
22/07:00pm 28.3 25.0 4.6 22 12.4 NW 11 15 6 8 1015.5 1013.2 0.0
22/06:30pm 29.0 25.4 3.1 19 13.3 WNW 11 17 6 9 1015.3 1013.0 0.0
22/06:00pm 30.0 25.5 2.3 17 14.1 WNW 15 22 8 12 1014.9 1012.6 0.0
22/05:30pm 30.9 24.8 0.3 14 15.1 WNW 22 33 12 18 1014.8 1012.5 0.0
22/05:00pm 32.1 24.7 -3.3 10 16.6 NW 26 37 14 20 1014.4 1012.1 0.0
22/04:30pm 32.6 26.0 -2.9 10 16.8 NW 22 33 12 18 1014.4 1012.1 0.0
22/04:00pm 32.8 25.5 -2.8 10 16.9 NNW 26 37 14 20 1014.4 1012.1 0.0
22/03:33pm 33.1 25.1 -2.6 10 17.1 N 30 48 16 26 1014.3 1011.9 0.0
22/03:30pm 33.2 25.6 -2.5 10 17.1 NNW 28 43 15 23 1014.4 1012.1 0.0
22/03:00pm 33.9 27.5 -2.0 10 17.4 NNW 22 33 12 18 1014.4 1012.1 0.0
22/02:30pm 33.3 26.2 -1.1 11 16.9 N 26 39 14 21 1014.6 1012.3 0.0
22/02:10pm 33.4 26.0 -1.0 11 16.9 N 28 48 15 26 1014.6 1012.3 0.0
22/02:00pm 34.0 27.4 -0.6 11 17.2 N 24 35 13 19 1014.9 1012.6 0.0
22/01:30pm 33.1 27.0 3.0 15 15.8 N 24 37 13 20 1015.6 1013.3 0.0
22/01:00pm 32.9 26.1 2.9 15 15.7 N 28 43 15 23 1016.0 1013.7 0.0
22/12:49pm 33.1 26.3 3.0 15 15.8 N 28 50 15 27 1016.2 1013.9 0.0
22/12:30pm 32.4 26.6 4.2 17 15.0 N 24 39 13 21 1016.6 1014.3 0.0
22/12:00pm 32.3 26.3 3.3 16 15.2 NNE 24 35 13 19 1017.0 1014.7 0.0
22/11:30am 31.4 25.9 5.8 20 13.9 NNE 24 35 13 19 1017.3 1015.0 0.0
22/11:00am 30.6 25.5 5.8 21 13.4 NNE 22 35 12 19 1017.7 1015.4 0.0
22/10:30am 29.2 23.3 6.0 23 12.5 NNE 26 41 14 22 1018.1 1015.9 0.0
22/10:00am 28.5 24.2 7.7 27 11.5 NE 20 32 11 17 1018.4 1016.1 0.0
22/09:30am 27.1 22.5 8.0 30 10.5 NE 22 35 12 19 1018.6 1016.3 0.0
22/09:00am 25.1 18.9 7.7 33 9.4 ENE 30 41 16 22 1018.6 1016.3 0.0
22/08:30am 24.0 17.7 7.6 35 8.8 ENE 30 41 16 22 1018.6 1016.3 0.0
22/08:00am 23.2 17.6 7.3 36 8.5 ENE 26 43 14 23 1018.5 1016.2 0.0
22/07:30am 22.3 17.7 8.1 40 7.6 ENE 22 33 12 18 1018.6 1016.3 0.0
22/07:00am 20.9 16.8 8.5 45 6.7 ENE 20 32 11 17 1018.4 1016.1 0.0
22/06:30am 19.4 15.3 8.7 50 5.7 E 20 28 11 15 1018.4 1016.1 0.0
22/06:00am 18.6 15.1 8.8 53 5.2 E 17 24 9 13 1018.3 1016.0 0.0
22/05:30am 17.4 14.4 9.1 58 4.4 E 15 20 8 11 1017.9 1015.7 0.0
22/05:00am 17.4 14.7 9.1 58 4.4 E 13 17 7 9 1017.7 1015.4 0.0
22/04:30am 17.7 15.4 9.1 57 4.6 E 11 19 6 10 1017.7 1015.4 0.0
22/04:00am 17.7 15.4 9.1 57 4.6 E 11 17 6 9 1017.6 1015.3 0.0
22/03:30am 18.1 15.4 8.9 55 4.9 E 13 15 7 8 1017.5 1015.2 0.0
22/03:00am 18.5 15.8 9.0 54 5.1 E 13 17 7 9 1017.6 1015.3 0.0
22/02:30am 18.4 16.7 9.7 57 4.7 E 9 13 5 7 1017.7 1015.4 0.0
22/02:00am 18.6 16.6 10.2 58 4.6 E 11 13 6 7 1017.7 1015.4 0.0
22/01:30am 18.9 17.0 10.5 58 4.6 E 11 15 6 8 1017.8 1015.5 0.0
22/01:00am 19.2 17.7 10.5 57 4.8 E 9 13 5 7 1018.1 1015.9 0.0
22/12:30am 19.8 18.2 10.2 54 5.3 E 9 13 5 7 1018.3 1016.0 0.0
22/12:00am 20.3 18.7 10.1 52 5.6 ESE 9 15 5 8 1018.4 1016.1 0.0
 
Date/Time
WST
Temp
°C
App
Temp
°C
Dew
Point
Rel
Hum
%
Delta-T
°C
Wind Press
QNH
hPa
Press
MSL
hPa
Rain
since 9 am
mm
Dir
 
Spd
km/h
Gust
km/h
Spd
kts
Gust
kts
21/11:30pm 20.3 18.5 9.5 50 5.9 E 9 13 5 7 1019.0 1016.7 0.0
21/11:00pm 21.1 18.3 8.7 45 6.7 E 13 17 7 9 1019.2 1016.9 0.0
21/10:30pm 21.4 19.3 8.3 43 7.0 E 9 13 5 7 1019.3 1017.0 0.0
21/10:00pm 22.1 19.9 7.9 40 7.6 ESE 9 13 5 7 1019.4 1017.1 0.0
21/09:30pm 22.6 20.4 8.0 39 7.9 ESE 9 13 5 7 1019.9 1017.7 0.0
21/09:00pm 23.4 21.0 7.1 35 8.6 E 9 13 5 7 1019.8 1017.6 0.0
21/08:30pm 23.9 21.6 7.5 35 8.8 E 9 13 5 7 1020.0 1017.8 0.0
21/08:00pm 24.5 21.9 7.6 34 9.1 E 11 13 6 7 1019.9 1017.7 0.0
21/07:30pm 25.1 22.4 7.3 32 9.6 E 11 13 6 7 1019.5 1017.2 0.0
21/07:00pm 26.0 23.2 7.1 30 10.2 E 11 15 6 8 1019.4 1017.1 0.0
21/06:30pm 26.9 24.1 6.9 28 10.8 E 11 13 6 7 1019.0 1016.7 0.0
21/06:00pm 28.3 24.9 5.8 24 12.0 E 13 22 7 12 1018.7 1016.4 0.0
21/05:30pm 29.3 25.5 6.0 23 12.6 E 15 22 8 12 1018.4 1016.1 0.0
21/05:00pm 29.4 26.8 3.4 19 13.4 S 6 9 3 5 1018.3 1016.0 0.0
21/04:30pm 29.5 26.2 2.7 18 13.7 SSE 9 13 5 7 1018.1 1015.9 0.0
21/04:00pm 29.4 26.8 4.1 20 13.2 SSE 7 15 4 8 1018.3 1016.0 0.0
21/03:30pm 29.4 27.0 4.1 20 13.2 SE 6 11 3 6 1018.4 1016.1 0.0
21/03:00pm 28.9 26.3 4.4 21 12.8 ESE 7 15 4 8 1018.4 1016.1 0.0
21/02:30pm 29.1 26.2 4.6 21 12.9 E 9 15 5 8 1018.6 1016.3 0.0
21/02:00pm 28.1 25.5 6.2 25 11.7 SW 9 15 5 8 1018.8 1016.5 0.0
21/01:30pm 28.0 24.9 5.6 24 11.9 S 11 17 6 9 1019.4 1017.1 0.0
21/01:00pm 27.7 25.3 7.0 27 11.2 SW 9 13 5 7 1019.8 1017.6 0.0
21/12:30pm 27.0 24.8 6.4 27 11.0 NE 7 17 4 9 1020.2 1018.0 0.0
21/12:00pm 27.5 24.5 7.9 29 10.8 ENE 13 24 7 13 1020.6 1018.3 0.0
21/11:30am 26.2 24.0 7.7 31 10.1 E 9 17 5 9 1020.9 1018.6 0.0
21/11:00am 25.8 23.3 8.3 33 9.6 E 11 20 6 11 1021.3 1019.0 0.0
21/10:30am 25.0 22.1 8.1 34 9.2 E 13 19 7 10 1021.6 1019.4 0.0
21/10:00am 24.6 21.7 8.1 35 9.0 E 13 22 7 12 1021.7 1019.5 0.0
21/09:30am 23.4 20.1 7.9 37 8.4 E 15 22 8 12 1022.0 1019.8 0.0
21/09:00am 22.6 19.5 8.7 41 7.5 E 15 22 8 12 1022.0 1019.8 0.0
21/08:30am 21.4 18.3 9.0 45 6.7 E 15 22 8 12 1021.9 1019.7 0.0
21/08:00am 20.3 16.8 8.9 48 6.1 ESE 17 20 9 11 1021.8 1019.6 0.0
21/07:30am 19.2 16.7 9.7 54 5.2 ESE 13 20 7 11 1021.6 1019.4 0.0
21/07:00am 17.8 15.3 9.7 59 4.4 ESE 13 19 7 10 1021.2 1018.9 0.0
21/06:30am 16.5 13.4 9.0 61 4.0 SE 15 20 8 11 1020.8 1018.5 0.0
21/06:00am 15.0 13.6 9.4 69 3.0 SE 7 9 4 5 1020.5 1018.2 0.0
21/05:30am 13.9 12.1 9.3 74 2.4 SE 9 11 5 6 1019.7 1017.5 0.0
21/05:00am 13.9 12.3 8.7 71 2.7 SE 7 9 4 5 1019.4 1017.1 0.0
21/04:30am 14.2 12.2 8.8 70 2.8 SE 9 9 5 5 1019.1 1016.8 0.0
21/04:00am 14.6 12.6 8.5 67 3.2 SE 9 11 5 6 1018.9 1016.6 0.0
21/03:30am 14.6 12.5 8.1 65 3.3 SE 9 9 5 5 1018.7 1016.4 0.0
21/03:00am 15.1 13.1 8.6 65 3.4 SSE 9 11 5 6 1018.4 1016.1 0.0
21/02:30am 15.5 13.5 8.5 63 3.6 SSE 9 11 5 6 1018.3 1016.0 0.0
21/02:00am 15.8 13.7 8.1 60 4.0 S 9 11 5 6 1018.3 1016.0 0.0
21/01:30am 16.4 14.2 7.9 57 4.4 SSE 9 11 5 6 1018.1 1015.9 0.0
21/01:00am 17.2 14.5 7.5 53 5.0 SSE 11 13 6 7 1018.3 1016.0 0.0
21/12:30am 17.9 14.8 7.3 50 5.5 S 13 17 7 9 1018.5 1016.2 0.0
21/12:00am 17.7 15.6 8.3 54 4.9 S 9 11 5 6 1018.8 1016.5 0.0
 
Date/Time
WST
Temp
°C
App
Temp
°C
Dew
Point
Rel
Hum
%
Delta-T
°C
Wind Press
QNH
hPa
Press
MSL
hPa
Rain
since 9 am
mm
Dir
 
Spd
km/h
Gust
km/h
Spd
kts
Gust
kts
20/11:30pm 18.6 16.0 7.7 49 5.7 S 11 13 6 7 1018.8 1016.5 0.0
20/11:00pm 18.9 16.7 7.7 48 5.9 S 9 11 5 6 1018.7 1016.4 0.0
20/10:30pm 19.6 17.4 7.7 46 6.3 S 9 11 5 6 1018.8 1016.5 0.0
20/10:00pm 20.3 17.4 6.6 41 7.1 S 11 15 6 8 1018.9 1016.6 0.0
20/09:30pm 20.4 17.3 7.4 43 6.8 SSW 13 19 7 10 1018.9 1016.6 0.0
20/09:00pm 19.8 17.9 9.1 50 5.8 SW 9 9 5 5 1018.7 1016.4 0.0
20/08:30pm 21.4 19.3 8.3 43 7.0 SSW 9 19 5 10 1018.5 1016.2 0.0
20/08:00pm 22.1 20.0 8.2 41 7.5 SSW 9 13 5 7 1018.1 1015.9 0.0
20/07:30pm 22.2 20.3 9.0 43 7.2 WSW 9 9 5 5 1017.4 1015.1 0.0
20/07:00pm 23.5 21.4 6.7 34 8.9 WSW 7 11 4 6 1017.0 1014.7 0.0
20/06:30pm 25.0 22.3 5.7 29 10.1 W 9 13 5 7 1016.7 1014.4 0.0
20/06:00pm 26.4 22.8 4.8 25 11.2 W 13 19 7 10 1016.2 1013.9 0.0
20/05:30pm 27.3 24.0 4.4 23 11.9 WSW 11 17 6 9 1015.8 1013.5 0.0
20/05:00pm 27.6 22.6 4.6 23 12.0 W 20 33 11 18 1015.5 1013.2 0.0
20/04:30pm 27.7 23.6 2.0 19 12.8 WNW 13 17 7 9 1015.3 1013.0 0.0
20/04:00pm 27.8 22.5 2.1 19 12.8 W 19 30 10 16 1015.2 1012.9 0.0
20/03:30pm 27.4 22.8 3.8 22 12.1 WNW 17 22 9 12 1015.1 1012.8 0.0
20/03:00pm 27.1 21.8 2.9 21 12.2 W 20 32 11 17 1015.2 1012.9 0.0
20/02:30pm 27.1 21.5 3.6 22 12.0 WNW 22 33 12 18 1015.2 1012.9 0.0
20/02:00pm 26.7 20.8 3.9 23 11.7 W 24 32 13 17 1015.5 1013.2 0.0
20/01:30pm 26.3 21.4 6.9 29 10.4 NW 22 28 12 15 1015.6 1013.3 0.0
20/01:00pm 25.8 21.6 7.4 31 10.0 NW 19 30 10 16 1015.9 1013.6 0.0
20/12:30pm 24.8 21.3 7.0 32 9.5 WNW 15 26 8 14 1016.4 1014.1 0.0

Other Formats:

Comma delimited format used in spreadsheet applications
http://www.bom.gov.au/fwo/IDW60801/IDW60801.95448.axf

JavaScript Object Notation format (JSON) in row-major order
http://www.bom.gov.au/fwo/IDW60801/IDW60801.95448.json